This demonstration page uses our WeatherBlox Daily Observations layout. Learn more.

Hourly Observations for June 25, 2016

Temp ( °F °C ) Dew Point ( °F °C ) Humidity (%) Winds ( mph kmh ) Pressure ( in mb ) Visibility ( mi km ) Precip ( " mm )
12:15 am 00:15 Clear 78 25.5 70 21 76 76 SSE 12 19 29.77 1008 10 16.0934 0 0
12:35 am 00:35 Clear 77 25.1 70 21 78 78 SSE 13 20 29.77 1008 10 16.0934 0 0
12:55 am 00:55 Clear 77 25.1 70 20.9 78 78 SSE 12 19 29.74 1007 10 16.0934 0 0
1:15 am 01:15 Clear 77 25 69 20.7 77 77 SSE 13 20 29.74 1007 10 16.0934 0 0
1:35 am 01:35 Clear 77 25 68 20.1 74 74 SSE 10 17 29.74 1007 10 16.0934 0 0
1:55 am 01:55 Clear 78 25.4 67 19.2 69 69 S 14 22 29.71 1006 10 16.0934 0 0
2:15 am 02:15 Clear 78 25.7 65 18.5 65 65 S 14 22 29.71 1006 10 16.0934 0 0
2:35 am 02:35 Clear 78 25.6 64 18 63 63 S 13 20 29.68 1005 10 16.0934 0 0
2:55 am 02:55 Clear 78 25.6 64 17.6 61 61 S 12 19 29.68 1005 10 16.0934 0 0
3:15 am 03:15 Clear 78 25.5 64 17.5 61 61 S 12 19 29.68 1005 10 16.0934 0 0
3:35 am 03:35 Clear 77 25.2 63 17.4 62 62 S 12 19 29.68 1005 10 16.0934 0 0
3:55 am 03:55 Clear 77 24.8 64 17.5 64 64 S 10 17 29.71 1006 10 16.0934 0 0
4:15 am 04:15 Clear 76 24.5 64 17.7 66 66 S 9 15 29.71 1006 10 16.0934 0 0
4:35 am 04:35 Clear 77 24.9 63 17.2 62 62 S 14 22 29.71 1006 10 16.0934 0 0
4:55 am 04:55 Clear 75 24 64 17.6 68 68 S 7 11 29.71 1006 10 16.0934 0 0
5:15 am 05:15 Clear with Light Drizzle 73 22.9 65 18.3 75 75 SW 6 9 29.71 1006 10 16.0934 0 0
5:35 am 05:35 Clear 74 23.4 64 17.9 71 71 SSW 9 15 29.71 1006 10 16.0934 0 0
5:55 am 05:55 Clear 74 23.6 64 17.7 70 70 S 5 7 29.71 1006 10 16.0934 0 0
6:15 am 06:15 Sunny 74 23.6 64 17.7 70 70 S 5 7 29.74 1007 10 16.0934 0 0
6:35 am 06:35 Sunny 73 22.6 65 18.2 76 76 SSE 9 15 29.74 1007 10 16.0934 0 0
6:55 am 06:55 Sunny 73 23 64 17.7 72 72 SSE 12 19 29.71 1006 10 16.0934 0 0
7:15 am 07:15 Sunny 74 23.3 64 17.5 70 70 S 15 24 29.71 1006 10 16.0934 0 0
7:35 am 07:35 Sunny with Thunderstorms 74 23.6 63 17.3 68 68 S 15 24 29.74 1007 10 16.0934 0 0
7:55 am 07:55 Sunny 75 23.7 63 17.2 67 67 SSW 15 24 29.74 1007 10 16.0934 0 0
8:15 am 08:15 Sunny 75 24 64 17.5 67 67 SSW 16 26 29.74 1007 10 16.0934 0 0
8:35 am 08:35 Sunny 76 24.2 64 17.5 66 66 S 14 22 29.74 1007 10 16.0934 0 0
8:55 am 08:55 Sunny 76 24.5 64 17.5 65 65 S 14 22 29.74 1007 10 16.0934 0 0
9:15 am 09:15 Sunny with Nearby Thunderstorms 75 24.1 64 17.5 67 67 S 13 20 29.74 1007 10 16.0934 0 0
9:35 am 09:35 Sunny 76 24.5 64 17.5 65 65 SSW 13 20 29.77 1008 10 16.0934 0 0
9:55 am 09:55 Sunny 77 25.1 64 17.7 64 64 S 14 22 29.74 1007 10 16.0934 0 0
10:15 am 10:15 Sunny 81 27.2 65 18.5 59 59 SSW 15 24 29.71 1006 10 16.0934 0 0
10:35 am 10:35 Sunny 83 28.6 64 17.6 51 51 SSW 18 30 29.74 1007 10 16.0934 0 0
10:55 am 10:55 Sunny 82 28 64 17.7 54 54 SW 14 22 29.74 1007 10 16.0934 0 0
11:15 am 11:15 Sunny 82 27.9 64 17.6 54 54 SSW 13 20 29.74 1007 10 16.0934 0 0
11:35 am 11:35 Sunny 81 27.3 65 18.2 58 58 WSW 5 7 29.74 1007 10 16.0934 0 0
11:55 am 11:55 Sunny 82 27.9 65 18.2 56 56 WSW 7 11 29.74 1007 10 16.0934 0 0
12:15 pm 12:15 Sunny 83 28.2 65 18.2 55 55 SW 10 17 29.74 1007 10 16.0934 0 0
12:35 pm 12:35 Sunny 82 28 65 18.3 56 56 SW 6 9 29.77 1008 10 16.0934 0 0
12:55 pm 12:55 Sunny 82 27.5 65 18.6 58 58 W 6 9 29.77 1008 10 16.0934 0 0
1:15 pm 13:15 Sunny 82 27.8 66 19.1 59 59 WNW 5 7 29.77 1008 10 16.0934 0 0
1:35 pm 13:35 Sunny with Light Rain 81 27 66 19 62 62 Calm 29.77 1008 10 16.0934 0 0
1:55 pm 13:55 Sunny with Light Rain 80 26.8 67 19.3 64 64 Calm 29.77 1008 10 16.0934 0 0
2:15 pm 14:15 Sunny 81 27.2 67 19.6 63 63 Calm 29.77 1008 10 16.0934 0 0
2:35 pm 14:35 Sunny 81 27.1 66 18.9 61 61 Calm 29.8 1009 10 16.0934 0 0
2:55 pm 14:55 Partly Cloudy 79 26.3 67 19.2 65 65 N 9 15 29.85 1011 10 16.0934 0 0
3:15 pm 15:15 Partly Cloudy 75 23.7 60 15.6 61 61 NNW 14 22 29.85 1011 10 16.0934 0 0
3:35 pm 15:35 Mostly Cloudy with Light Rain 72 22.4 62 16.6 70 70 NNW 6 9 29.91 1013 10 16.0934 0 0
3:55 pm 15:55 Partly Cloudy 71 21.8 64 17.6 77 77 N 6 9 29.91 1013 10 16.0934 0 0
4:15 pm 16:15 Partly Cloudy with Light Rain 71 21.8 65 18.6 82 82 NE 3 6 29.88 1012 10 16.0934 0 0
4:35 pm 16:35 Partly Cloudy with Light Rain 72 22 66 19 83 83 N 6 9 29.88 1012 10 16.0934 0 0
4:55 pm 16:55 Sunny 72 22.3 65 18.5 79 79 NE 8 13 29.88 1012 10 16.0934 0 0
5:15 pm 17:15 Sunny 73 22.9 65 18.6 77 77 N 8 13 29.85 1011 10 16.0934 0 0
5:35 pm 17:35 Sunny 74 23.1 64 18 73 73 N 9 15 29.85 1011 10 16.0934 0 0
5:55 pm 17:55 Sunny 74 23.5 63 17.4 69 69 N 8 13 29.83 1010 10 16.0934 0 0
6:15 pm 18:15 Sunny 74 23.2 64 17.6 71 71 NNE 7 11 29.83 1010 10 16.0934 0 0
6:35 pm 18:35 Sunny 74 23.2 63 17.3 70 70 N 9 15 29.85 1011 10 16.0934 0 0
6:55 pm 18:55 Sunny 73 23 64 17.7 72 72 N 7 11 29.83 1010 10 16.0934 0 0
7:15 pm 19:15 Sunny 73 22.8 64 17.6 73 73 N 7 11 29.83 1010 10 16.0934 0 0
7:35 pm 19:35 Sunny 73 22.5 63 17.2 72 72 N 6 9 29.88 1012 10 16.0934 0 0
7:55 pm 19:55 Sunny 72 22.3 63 17.3 73 73 N 3 6 29.91 1013 10 16.0934 0 0
8:15 pm 20:15 Sunny 72 22.1 63 17.3 74 74 N 7 11 29.91 1013 10 16.0934 0 0
8:35 pm 20:35 Sunny 71 21.8 64 17.5 77 77 N 5 7 29.91 1013 10 16.0934 0 0
8:55 pm 20:55 Sunny 71 21.8 63 17 74 74 N 3 6 29.91 1013 10 16.0934 0 0
9:15 pm 21:15 Clear 71 21.5 63 17 76 76 NNW 5 7 29.91 1013 10 16.0934 0 0
9:35 pm 21:35 Clear 69 20.5 64 17.5 83 83 N 5 7 29.94 1014 10 16.0934 0 0
9:55 pm 21:55 Clear 69 20.8 64 17.5 82 82 Calm 29.97 1015 10 16.0934 0 0
10:15 pm 22:15 Clear 68 20 64 17.6 86 86 E 3 6 29.94 1014 10 16.0934 0 0
10:35 pm 22:35 Clear 68 20.1 64 17.7 86 86 SSE 5 7 29.97 1015 10 16.0934 0 0
10:55 pm 22:55 Clear 67 19.4 64 17.5 89 89 Calm 30 1016 10 16.0934 0 0
11:15 pm 23:15 Clear 67 19.4 64 17.6 89 89 Calm 30 1016 10 16.0934 0 0
11:35 pm 23:35 Clear 67 19.6 64 17.5 88 88 Calm 30 1016 10 16.0934 0 0
11:55 pm 23:55 Clear 67 19.6 64 17.5 88 88 Calm 30 1016 10 16.0934 0 0

Powered by AerisWeather